Location: Nebraska Star Party
(42.6000°N, 100.8833°W)
Time: 22:36:02
(UTC-05:00)

Amateur Radio Satellites - All Passes

Search period start: 31 August 2016 22:06
Search period end: 01 September 2016 22:06
Location: Nebraska Star Party, 42.6000°N, 100.8833°W

Satellite Date Start Highest point End Downlink Frequencies (MHz)
Time Altitude Azimuth
CINEMA 3 31 Aug 22:15:30 22:17:32 12° 272° (W) 22:19:32 145.822/145.860
Cosmos 2499 31 Aug 22:17:22 22:20:51 14° 61° (ENE) 22:24:21 435.465 / 435.565
GONETS M04 31 Aug 22:25:09 22:32:22 27° 65° (ENE) 22:39:31
DELFI C3 31 Aug 22:25:48 22:29:40 59° 75° (ENE) 22:33:34 145.870
HO-68 31 Aug 22:28:47 22:33:41 19° 270° (W) 22:38:38 435.675
O/OREOS (USA 219) 31 Aug 22:40:46 22:43:52 18° 53° (NE) 22:46:57 437.305
PCSat 31 Aug 22:45:11 22:48:23 16° 256° (WSW) 22:51:34 145.827
STRAND 1 31 Aug 22:46:47 22:49:36 15° 300° (WNW) 22:52:26 437.568
Oscar 11 31 Aug 22:49:51 22:53:39 30° 264° (W) 22:57:29 145.826/435.025
AUBIESAT-1 31 Aug 22:55:22 22:59:00 23° 61° (ENE) 23:02:34 437.475
SO-50 31 Aug 22:57:53 23:02:02 29° 114° (ESE) 23:06:11 436.795
FUNcube-1 31 Aug 23:04:06 23:07:39 24° 265° (W) 23:11:11 145.935
M-CUBED/EXP-1 PRIME 31 Aug 23:04:29 23:08:41 34° 64° (ENE) 23:12:52 437.505
ANTELSAT 31 Aug 23:15:55 23:19:15 22° 94° (E) 23:22:34 437.575/2403.000
ZACube-1 31 Aug 23:30:11 23:32:06 13° 270° (W) 23:34:00 437.345
HUMSAT D 31 Aug 23:32:38 23:36:38 48° 261° (W) 23:40:38 437.325/437.525
50 SAT 31 Aug 23:33:16 23:34:33 12° 64° (ENE) 23:35:51 437.505
PRISM 31 Aug 23:37:11 23:40:30 23° 293° (WNW) 23:43:49 437.425
AISAT 31 Aug 23:42:27 23:45:48 21° 65° (ENE) 23:49:10 437.250
TIGRISAT 31 Aug 23:44:57 23:49:01 42° 99° (E) 23:53:03 435.000
ESTCUBE 1 31 Aug 23:52:43 23:56:58 45° 72° (ENE) 00:01:17 437.505/2401.250
DELFI C3 01 Sep 00:04:06 00:04:53 10° 271° (W) 00:05:42 145.870
JAS-2 01 Sep 00:06:23 00:09:03 12° 86° (E) 00:11:46 435.910
Cosmos 2499 01 Sep 00:08:05 00:15:10 82° 82° (E) 00:22:25 435.465 / 435.565
SPROUT 01 Sep 00:14:13 00:17:27 21° 66° (ENE) 00:20:43 437.525
UNISAT 6 01 Sep 00:15:03 00:19:21 81° 284° (WNW) 00:23:35 437.425
CUBEBUG 1 01 Sep 00:17:40 00:21:58 54° 73° (ENE) 00:26:19 437.445
O/OREOS (USA 219) 01 Sep 00:19:08 00:23:39 57° 251° (WSW) 00:28:09 437.305
GONETS M04 01 Sep 00:21:12 00:30:01 71° 266° (W) 00:38:46
RS-15 01 Sep 00:21:19 00:30:31 29° 102° (ESE) 00:40:02 29.354- 29.394
CUSAT 1 01 Sep 00:22:01 00:25:11 57° 285° (WNW) 00:29:16 437.405
DANDE 01 Sep 00:22:45 00:25:03 26° 92° (E) 00:27:39 436.750
DUCHIFAT 1 01 Sep 00:23:57 00:26:23 15° 92° (E) 00:28:48 145.980
VELOX 1 01 Sep 00:28:02 00:32:24 58° 73° (ENE) 00:36:48 145.980
AUBIESAT-1 01 Sep 00:28:45 00:33:10 43° 256° (WSW) 00:37:33 437.475
DX 1 01 Sep 00:29:25 00:33:30 40° 71° (ENE) 00:37:38 434.975-435.025
QB50P2 01 Sep 00:32:50 00:36:13 23° 94° (E) 00:39:34 145.880/145.840
POLYITAN 1 01 Sep 00:35:19 00:38:42 23° 95° (E) 00:42:03 437.675
SO-50 01 Sep 00:37:50 00:42:24 39° 311° (NW) 00:46:55 436.795
M-CUBED/EXP-1 PRIME 01 Sep 00:39:04 00:43:09 29° 259° (W) 00:47:13 437.505
NANOSAT C BR1 01 Sep 00:39:22 00:42:47 24° 94° (E) 00:46:11 145.865
ANTELSAT 01 Sep 00:52:13 00:56:02 32° 291° (WNW) 00:59:50 437.575/2403.000
BUGSAT 1 01 Sep 00:59:24 01:01:51 15° 92° (E) 01:04:16 437.445
UKube-1 01 Sep 01:00:28 01:04:45 69° 74° (ENE) 01:09:06 .
50 SAT 01 Sep 01:04:14 01:07:42 48° 260° (W) 01:11:12 437.505
AISAT 01 Sep 01:17:49 01:22:00 39° 262° (W) 01:26:14 437.250
TIGRISAT 01 Sep 01:22:32 01:25:24 18° 295° (WNW) 01:28:14 435.000
QB50P1 01 Sep 01:25:43 01:29:58 86° 102° (ESE) 01:34:09 145.935-145.965
ESTCUBE 1 01 Sep 01:30:58 01:34:00 18° 268° (W) 01:37:04 437.505/2401.250
PHONESAT 2.4 01 Sep 01:32:33 01:35:18 33° 163° (SSE) 01:38:03 2401.200-2431.200
POPSAT HIP 1 01 Sep 01:36:15 01:40:27 74° 285° (WNW) 01:44:38 437.405
JAS-2 01 Sep 01:47:56 01:54:58 69° 102° (ESE) 02:02:39 435.910
SPROUT 01 Sep 01:49:11 01:53:10 36° 263° (W) 01:57:11 437.525
TISAT 1 01 Sep 01:50:23 01:54:30 50° 72° (ENE) 01:58:36 437.305
CUBEBUG 1 01 Sep 01:56:09 01:58:35 14° 269° (W) 02:01:02 437.445
DUCHIFAT 1 01 Sep 01:58:18 02:02:20 46° 288° (WNW) 02:06:19 145.980
Cosmos 2499 01 Sep 02:03:15 02:07:19 16° 281° (W) 02:11:27 435.465 / 435.565
SWISSCUBE 01 Sep 02:04:57 02:08:10 18° 63° (ENE) 02:11:24 437.505
DX 1 01 Sep 02:06:45 02:09:51 19° 267° (W) 02:13:00 434.975-435.025
VELOX 1 01 Sep 02:06:57 02:09:14 14° 269° (W) 02:11:32 145.980
QB50P2 01 Sep 02:08:19 02:12:02 31° 291° (WNW) 02:15:44 145.880/145.840
POLYITAN 1 01 Sep 02:10:49 02:14:31 30° 291° (WNW) 02:18:11 437.675
NANOSAT C BR1 01 Sep 02:14:52 02:18:30 29° 291° (WNW) 02:22:09 145.865
BEESAT 01 Sep 02:20:54 02:24:38 23° 65° (ENE) 02:28:22 436.000
GONETS M04 01 Sep 02:21:24 02:25:05 13° 287° (WNW) 02:28:47
RS-15 01 Sep 02:29:58 02:41:35 82° 305° (NW) 02:53:53 29.354- 29.394
BUGSAT 1 01 Sep 02:33:32 02:37:28 43° 288° (WNW) 02:41:19 437.445
UKube-1 01 Sep 02:40:06 02:41:16 11° 270° (W) 02:42:25 .
PHONESAT 2.4 01 Sep 03:08:27 03:11:25 57° 180° (S) 03:14:23 2401.200-2431.200
ITUPSAT 1 01 Sep 03:10:26 03:15:09 69° 73° (ENE) 03:19:53 437.325
Oscar 19 01 Sep 03:17:18 03:22:32 81° 103° (ESE) 03:27:43 437.125/150
Gurwin Techsat 1B 01 Sep 03:27:24 03:32:33 47° 99° (E) 03:37:37 435.225
TISAT 1 01 Sep 03:28:02 03:30:25 15° 269° (W) 03:32:48 437.305
MOZHAYETS 4 01 Sep 03:29:17 03:32:10 17° 63° (ENE) 03:35:02
JAS-2 01 Sep 03:33:57 03:39:30 26° 298° (WNW) 03:45:26 435.910
SWISSCUBE 01 Sep 03:40:56 03:45:33 52° 260° (W) 03:50:13 437.505
AO-7 01 Sep 03:45:37 03:49:30 14° 87° (E) 03:53:21 29.400- 29.500
BEESAT 01 Sep 03:57:44 04:02:10 40° 261° (W) 04:06:40 436.000
Cosmos 2491 01 Sep 04:02:46 04:07:59 17° 58° (ENE) 04:13:10 435.465 / 435.565
KKS-1 01 Sep 04:22:55 04:27:10 44° 71° (ENE) 04:31:27 437.445
AO-85 01 Sep 04:36:28 04:40:59 29° 114° (ESE) 04:45:20 145.980
ITAMSAT 1 01 Sep 04:42:12 04:47:22 68° 102° (ESE) 04:52:32 435.822/435.867
PHONESAT 2.4 01 Sep 04:44:46 04:47:32 34° 196° (SSW) 04:50:18 2401.200-2431.200
STARS 01 Sep 04:45:23 04:49:28 38° 70° (ENE) 04:53:35 437.465
RS-15 01 Sep 04:45:52 04:56:16 33° 333° (NNW) 05:07:04 29.354- 29.394
ITUPSAT 1 01 Sep 04:51:17 04:53:27 13° 270° (W) 04:55:37 437.325
Oscar 19 01 Sep 04:58:24 05:01:10 15° 301° (WNW) 05:03:55 437.125/150
CUBESAT XI-V 01 Sep 05:02:06 05:05:27 20° 65° (ENE) 05:08:49 437.345
MOZHAYETS 4 01 Sep 05:04:27 05:08:54 53° 260° (W) 05:13:22
Gurwin Techsat 1B 01 Sep 05:07:59 05:12:11 24° 296° (WNW) 05:16:22 435.225
YUBILEINY 01 Sep 05:17:58 05:23:08 17° 76° (ENE) 05:28:18 435.215
AO-7 01 Sep 05:35:16 05:43:37 74° 106° (ESE) 05:51:53 29.400- 29.500
HORYU 2 01 Sep 05:37:24 05:38:52 11° 90° (E) 05:40:19 437.375
Cosmos 2491 01 Sep 05:57:37 06:06:30 76° 81° (E) 06:15:20 435.465 / 435.565
KKS-1 01 Sep 06:00:51 06:03:56 18° 267° (W) 06:07:03 437.445
Cosmos 2504 01 Sep 06:16:03 06:18:59 12° 76° (ENE) 06:21:51 435.465 / 435.565
AO-85 01 Sep 06:16:21 06:21:21 43° 310° (NW) 06:26:04 145.980
BRITE-PL 01 Sep 06:19:28 06:23:31 20° 89° (E) 06:27:28 437.365/2234.400
STARS 01 Sep 06:22:35 06:25:56 21° 266° (W) 06:29:19 437.465
ITAMSAT 1 01 Sep 06:23:03 06:26:17 17° 300° (WNW) 06:29:30 435.822/435.867
CUBESAT XI-V 01 Sep 06:38:06 06:42:30 44° 262° (W) 06:46:58 437.345
STRAND 1 01 Sep 06:46:03 06:49:01 16° 60° (ENE) 06:51:59 437.568
RS-15 01 Sep 07:04:16 07:13:57 26° 8° (N) 07:23:45 29.354- 29.394
GOMX 1 01 Sep 07:07:45 07:11:59 24° 91° (E) 07:16:01 467.674
ISS 01 Sep 07:08:14 07:10:13 15° 132° (SE) 07:12:11 145.825
YUBILEINY 01 Sep 07:09:42 07:18:32 85° 96° (E) 07:27:25 435.215
HORYU 2 01 Sep 07:11:29 07:15:52 68° 286° (WNW) 07:20:15 437.375
SO-50 01 Sep 07:28:16 07:32:26 32° 46° (NE) 07:36:30 436.795
AO-7 01 Sep 07:29:00 07:35:39 28° 306° (NW) 07:42:17 29.400- 29.500
NOAA 18 01 Sep 07:41:36 07:46:40 37° 98° (E) 07:51:41 137.9125
NOAA 15 01 Sep 07:43:10 07:48:26 57° 101° (E) 07:53:40 137.62
Cubesat XI-IV 01 Sep 07:48:25 07:53:36 50° 100° (E) 07:58:45 437.490
Cosmos 2491 01 Sep 07:55:53 08:02:21 24° 281° (W) 08:08:51 435.465 / 435.565
BRITE-PL 01 Sep 07:56:47 08:02:23 60° 287° (WNW) 08:07:47 437.365/2234.400
CUTE-I 01 Sep 07:58:34 08:03:51 63° 102° (ESE) 08:09:07 437.470
AO-85 01 Sep 08:02:34 08:03:00 10° 330° (NNW) 08:03:28 145.980
Cosmos 2504 01 Sep 08:02:46 08:11:02 72° 94° (E) 08:18:45 435.465 / 435.565
LilacSat-2 01 Sep 08:04:53 08:08:40 87° 110° (ESE) 08:12:26 437.200
HO-68 01 Sep 08:07:46 08:10:56 13° 87° (E) 08:14:06 435.675
STRAND 1 01 Sep 08:22:31 08:27:35 72° 257° (WSW) 08:32:42 437.568
DOVE 4 01 Sep 08:25:56 08:30:50 58° 100° (E) 08:35:24 437.250
CINEMA 3 01 Sep 08:30:36 08:33:23 16° 91° (E) 08:36:05 145.822/145.860
BEESAT 3 01 Sep 08:41:19 08:44:03 18° 112° (ESE) 08:46:48 437.485
ISS 01 Sep 08:43:03 08:46:19 68° 329° (NNW) 08:49:36 145.825
GOMX 1 01 Sep 08:45:12 08:50:15 44° 290° (WNW) 08:55:03 467.674
PRISM 01 Sep 08:51:51 08:55:13 25° 67° (ENE) 08:58:38 437.425
SEEDS 01 Sep 08:52:37 08:55:03 15° 91° (E) 08:57:27 437.485
SO-50 01 Sep 09:08:48 09:12:53 32° 245° (WSW) 09:16:52 436.795
AAUSAT CUBESAT 2 01 Sep 09:09:29 09:11:08 12° 90° (E) 09:12:46 437.432
YUBILEINY 01 Sep 09:10:04 09:16:30 22° 298° (WNW) 09:22:59 435.215
CUSAT 1 01 Sep 09:10:38 09:15:19 19° 65° (ENE) 09:20:26 437.405
RS-15 01 Sep 09:18:46 09:30:38 48° 41° (NE) 09:42:21 29.354- 29.394
COMPASS 1 01 Sep 09:21:26 09:24:40 21° 94° (E) 09:27:53 437.405
NOAA 18 01 Sep 09:22:28 09:27:12 31° 295° (WNW) 09:31:54 137.9125
CANX-2 01 Sep 09:23:25 09:27:35 53° 100° (E) 09:31:45 2200.000
NOAA 15 01 Sep 09:23:56 09:27:46 21° 298° (WNW) 09:31:35 137.62
CUTE 1.7 + AOD 2 01 Sep 09:28:28 09:32:38 52° 100° (E) 09:36:48 437.475
Cubesat XI-IV 01 Sep 09:29:15 09:33:20 23° 297° (WNW) 09:37:25 437.490
UWE-3 01 Sep 09:37:14 09:39:38 15° 91° (E) 09:42:02 435.000/436.395/437.385
CUTE-I 01 Sep 09:39:47 09:43:24 19° 299° (WNW) 09:47:00 437.470
UNISAT 6 01 Sep 09:41:31 09:42:31 11° 60° (ENE) 09:43:31 437.425
AIST 1 01 Sep 09:46:45 09:51:05 74° 97° (E) 09:55:29
CUBEBUG 2 01 Sep 09:49:36 09:53:20 31° 96° (E) 09:57:01 437.445
HO-68 01 Sep 09:52:32 09:59:44 79° 105° (ESE) 10:06:53 435.675
Cosmos 2504 01 Sep 09:58:43 10:05:03 24° 293° (WNW) 10:11:06 435.465 / 435.565
DOVE 4 01 Sep 10:04:48 10:07:58 17° 298° (WNW) 10:11:01 437.250
CINEMA 3 01 Sep 10:06:35 10:10:50 45° 288° (WNW) 10:14:53 145.822/145.860
BEESAT 2 01 Sep 10:09:53 10:13:49 87° 122° (ESE) 10:17:50 435.950
ANTELSAT 01 Sep 10:15:20 10:18:55 23° 67° (ENE) 10:22:27 437.575/2403.000
BEESAT 3 01 Sep 10:17:43 10:21:25 40° 309° (NW) 10:25:10 437.485
ISS 01 Sep 10:20:42 10:23:14 20° 347° (NNW) 10:25:47 145.825
PRISM 01 Sep 10:26:54 10:30:26 27° 264° (W) 10:34:00 437.425
SEEDS 01 Sep 10:26:56 10:31:00 48° 287° (WNW) 10:35:04 437.485
Oscar 11 01 Sep 10:35:42 10:39:50 43° 98° (E) 10:43:58 145.826/435.025
AAUSAT CUBESAT 2 01 Sep 10:42:51 10:46:58 58° 286° (WNW) 10:51:04 437.432
TIGRISAT 01 Sep 10:43:54 10:48:11 42° 71° (ENE) 10:52:24 435.000
FUNcube-1 01 Sep 10:50:19 10:54:25 58° 100° (E) 10:58:29 145.935
CUSAT 1 01 Sep 10:51:03 10:57:59 87° 83° (E) 11:05:58 437.405
DANDE 01 Sep 10:55:14 11:00:52 43° 76° (ENE) 11:07:54 436.750
COMPASS 1 01 Sep 10:56:30 11:00:16 33° 290° (WNW) 11:04:02 437.405
Cosmos 2499 01 Sep 10:59:35 11:00:49 10° 75° (ENE) 11:02:03 435.465 / 435.565
CANX-2 01 Sep 11:00:37 11:03:00 15° 296° (WNW) 11:05:24 2200.000
CUTE 1.7 + AOD 2 01 Sep 11:05:37 11:08:03 15° 296° (WNW) 11:10:28 437.475
UWE-3 01 Sep 11:12:23 11:16:22 45° 288° (WNW) 11:20:19 435.000/436.395/437.385
UNISAT 6 01 Sep 11:13:59 11:18:34 87° 255° (WSW) 11:23:04 437.425
ZACube-1 01 Sep 11:14:50 11:18:58 67° 285° (WNW) 11:23:04 437.345
HUMSAT D 01 Sep 11:15:31 11:18:51 23° 95° (E) 11:22:10 437.325/437.525
DUCHIFAT 1 01 Sep 11:17:09 11:19:16 14° 63° (ENE) 11:21:22 145.980
QB50P2 01 Sep 11:26:23 11:29:31 20° 66° (ENE) 11:32:39 145.880/145.840
CUBEBUG 2 01 Sep 11:26:33 11:29:49 22° 293° (WNW) 11:33:02 437.445
GONETS M04 01 Sep 11:28:00 11:35:06 29° 82° (E) 11:42:15
AIST 1 01 Sep 11:28:14 11:29:15 11° 294° (WNW) 11:30:15
POLYITAN 1 01 Sep 11:28:51 11:32:00 20° 66° (ENE) 11:35:10 437.675
AIST 2 01 Sep 11:28:52 11:32:10 24° 113° (ESE) 11:35:30 435.215
RS-15 01 Sep 11:31:38 11:43:44 64° 246° (WSW) 11:55:34 29.354- 29.394
NANOSAT C BR1 01 Sep 11:32:23 11:35:34 21° 66° (ENE) 11:38:45 145.865
DELFI C3 01 Sep 11:37:07 11:41:09 89° 285° (WNW) 11:45:11 145.870
HO-68 01 Sep 11:41:27 11:46:42 23° 304° (NW) 11:51:56 435.675
PCSat 01 Sep 11:42:18 11:47:35 58° 115° (ESE) 11:52:55 145.827
BEESAT 2 01 Sep 11:50:19 11:52:14 13° 322° (NW) 11:54:10 435.950
BUGSAT 1 01 Sep 11:50:23 11:52:30 14° 63° (ENE) 11:54:37 437.445
ANTELSAT 01 Sep 11:51:16 11:55:27 35° 263° (W) 11:59:34 437.575/2403.000
ISS 01 Sep 11:58:13 12:00:35 18° 8° (N) 12:02:56 145.825
JAS-2 01 Sep 12:02:48 12:07:15 28° 63° (ENE) 12:12:03 435.910
AUBIESAT-1 01 Sep 12:10:16 12:10:35 10° 93° (E) 12:10:54 437.475
Oscar 11 01 Sep 12:12:42 12:15:39 18° 295° (WNW) 12:18:35 145.826/435.025
QB50P1 01 Sep 12:18:22 12:22:36 68° 75° (ENE) 12:26:51 145.935-145.965
M-CUBED/EXP-1 PRIME 01 Sep 12:18:39 12:21:16 17° 96° (E) 12:23:45 437.505
VELOX 1 01 Sep 12:20:37 12:21:07 10° 89° (E) 12:21:36 145.980
TIGRISAT 01 Sep 12:21:48 12:25:02 19° 267° (W) 12:28:15 435.000
FUNcube-1 01 Sep 12:28:18 12:30:11 13° 297° (WNW) 12:32:03 145.935
POPSAT HIP 1 01 Sep 12:28:52 12:33:09 87° 78° (ENE) 12:37:27 437.405
50 SAT 01 Sep 12:33:12 12:34:42 12° 91° (E) 12:36:12 437.505
CUSAT 1 01 Sep 12:34:41 12:39:24 19° 275° (W) 12:44:28 437.405
DANDE 01 Sep 12:38:07 12:43:34 35° 267° (W) 12:50:12 436.750
Cosmos 2499 01 Sep 12:44:39 12:52:33 67° 94° (E) 12:59:55 435.465 / 435.565
UKube-1 01 Sep 12:49:36 12:50:30 11° 89° (E) 12:51:25 .
DUCHIFAT 1 01 Sep 12:50:16 12:54:28 60° 259° (W) 12:58:40 145.980
HUMSAT D 01 Sep 12:50:56 12:54:27 28° 291° (WNW) 12:57:59 437.325/437.525
O/OREOS (USA 219) 01 Sep 12:54:56 12:57:26 15° 99° (E) 12:59:57 437.305
Oscar 19 01 Sep 12:57:54 13:01:12 17° 60° (ENE) 13:04:29 437.125/150
QB50P2 01 Sep 13:01:06 13:05:04 37° 262° (W) 13:09:03 145.880/145.840
POLYITAN 1 01 Sep 13:03:36 13:07:34 37° 262° (W) 13:11:33 437.675
AIST 2 01 Sep 13:06:42 13:10:28 35° 311° (NW) 13:14:18 435.215
AISAT 01 Sep 13:07:05 13:11:13 35° 98° (E) 13:15:16 437.250
NANOSAT C BR1 01 Sep 13:07:08 13:11:04 36° 262° (W) 13:15:01 145.865
AO-85 01 Sep 13:07:39 13:11:20 26° 45° (NE) 13:14:48 145.980
Gurwin Techsat 1B 01 Sep 13:13:35 13:15:20 12° 56° (ENE) 13:17:06 435.225
ESTCUBE 1 01 Sep 13:20:46 13:25:21 89° 291° (WNW) 13:29:54 437.505/2401.250
GONETS M04 01 Sep 13:22:33 13:31:14 64° 282° (WNW) 13:40:01
BUGSAT 1 01 Sep 13:23:11 13:27:23 60° 259° (W) 13:31:36 437.445
PCSat 01 Sep 13:26:58 13:31:22 25° 314° (NW) 13:35:48 145.827
SPROUT 01 Sep 13:34:11 13:38:06 34° 97° (E) 13:41:58 437.525
ISS 01 Sep 13:34:28 13:37:39 44° 27° (NNE) 13:40:49 145.825
CUBEBUG 1 01 Sep 13:41:33 13:46:01 81° 282° (WNW) 13:50:24 437.445
AUBIESAT-1 01 Sep 13:41:40 13:45:32 57° 292° (WNW) 13:49:06 437.475
JAS-2 01 Sep 13:47:15 13:52:10 39° 264° (W) 13:57:30 435.910
RS-15 01 Sep 13:48:28 13:53:32 14° 267° (W) 13:58:33 29.354- 29.394
M-CUBED/EXP-1 PRIME 01 Sep 13:52:19 13:56:00 35° 295° (WNW) 13:59:23 437.505
DX 1 01 Sep 13:52:34 13:56:58 70° 103° (ESE) 14:01:18 434.975-435.025
VELOX 1 01 Sep 13:53:38 13:58:06 77° 286° (WNW) 14:02:32 145.980
QB50P1 01 Sep 13:57:49 13:58:49 11° 271° (W) 13:59:50 145.935-145.965
50 SAT 01 Sep 14:05:00 14:08:30 44° 287° (WNW) 14:11:59 437.505
UKube-1 01 Sep 14:22:41 14:27:02 71° 285° (WNW) 14:31:19 .
ITAMSAT 1 01 Sep 14:24:13 14:27:13 16° 59° (ENE) 14:30:12 435.822/435.867
O/OREOS (USA 219) 01 Sep 14:31:55 14:36:20 55° 296° (WNW) 14:40:49 437.305
Oscar 19 01 Sep 14:34:49 14:39:57 67° 258° (WSW) 14:45:09 437.125/150
Cosmos 2499 01 Sep 14:40:03 14:46:12 25° 292° (WNW) 14:52:05 435.465 / 435.565
AISAT 01 Sep 14:43:58 14:47:28 23° 294° (WNW) 14:50:58 437.250
AO-7 01 Sep 14:44:42 14:51:09 26° 53° (NE) 14:57:35 29.400- 29.500
AO-85 01 Sep 14:48:02 14:51:48 32° 245° (WSW) 14:55:21 145.980
Gurwin Techsat 1B 01 Sep 14:49:05 14:54:24 79° 74° (ENE) 14:59:44 435.225
ESTCUBE 1 01 Sep 15:00:39 15:01:25 10° 301° (WNW) 15:02:10 437.505/2401.250
TISAT 1 01 Sep 15:08:54 15:13:07 82° 101° (E) 15:17:18 437.305
SPROUT 01 Sep 15:10:33 15:13:50 22° 294° (WNW) 15:17:06 437.525
ISS 01 Sep 15:11:13 15:13:58 25° 224° (SW) 15:16:43 145.825
ITUPSAT 1 01 Sep 15:11:21 15:14:22 16° 92° (E) 15:17:22 437.325
GONETS M04 01 Sep 15:26:19 15:30:09 13° 306° (NW) 15:34:00
DX 1 01 Sep 15:30:39 15:32:34 13° 299° (WNW) 15:34:28 434.975-435.025
SWISSCUBE 01 Sep 15:40:19 15:44:44 36° 98° (E) 15:49:06 437.505
BEESAT 01 Sep 15:56:41 16:01:18 47° 100° (E) 16:05:53 436.000
ITAMSAT 1 01 Sep 16:00:53 16:06:03 74° 257° (WSW) 16:11:15 435.822/435.867
Gurwin Techsat 1B 01 Sep 16:32:29 16:34:57 13° 271° (W) 16:37:26 435.225
AO-7 01 Sep 16:34:41 16:43:03 81° 253° (WSW) 16:51:27 29.400- 29.500
HORYU 2 01 Sep 16:36:07 16:38:14 13° 61° (ENE) 16:40:20 437.375
ITUPSAT 1 01 Sep 16:47:51 16:52:31 55° 288° (WNW) 16:57:11 437.325
BEESAT 2 01 Sep 16:52:13 16:52:32 10° 35° (NE) 16:52:52 435.950
BEESAT 3 01 Sep 16:57:09 16:59:53 17° 42° (NE) 17:02:35 437.485
MOZHAYETS 4 01 Sep 16:58:44 17:02:52 33° 96° (E) 17:07:00
Cosmos 2491 01 Sep 17:07:25 17:12:25 17° 76° (ENE) 17:17:25 435.465 / 435.565
SWISSCUBE 01 Sep 17:18:27 17:22:21 26° 294° (WNW) 17:26:14 437.505
YUBILEINY 01 Sep 17:19:21 17:27:39 44° 73° (ENE) 17:35:50 435.215
NOAA 15 01 Sep 17:27:28 17:30:09 14° 58° (ENE) 17:32:50 137.62
BRITE-PL 01 Sep 17:30:42 17:34:39 23° 63° (ENE) 17:38:48 437.365/2234.400
NOAA 18 01 Sep 17:32:12 17:34:13 12° 55° (NE) 17:36:14 137.9125
Cubesat XI-IV 01 Sep 17:34:50 17:37:09 13° 57° (ENE) 17:39:29 437.490
BEESAT 01 Sep 17:35:18 17:38:44 20° 296° (WNW) 17:42:11 436.000
CUTE-I 01 Sep 17:43:58 17:47:04 16° 59° (ENE) 17:50:09 437.470
KKS-1 01 Sep 17:49:16 17:53:45 82° 103° (ESE) 17:58:12 437.445
Cosmos 2504 01 Sep 17:55:20 18:00:58 24° 67° (ENE) 18:06:32 435.465 / 435.565
HORYU 2 01 Sep 18:09:48 18:14:14 68° 258° (WSW) 18:18:40 437.375
STARS 01 Sep 18:09:51 18:14:15 66° 102° (ESE) 18:18:34 437.465
GOMX 1 01 Sep 18:15:45 18:20:11 28° 66° (ENE) 18:24:48 467.674
BEESAT 2 01 Sep 18:27:10 18:31:10 63° 54° (NE) 18:35:09 435.950
AO-7 01 Sep 18:32:18 18:37:01 16° 271° (W) 18:41:46 29.400- 29.500
CUBESAT XI-V 01 Sep 18:33:38 18:38:07 42° 98° (E) 18:42:36 437.345
BEESAT 3 01 Sep 18:33:58 18:37:53 55° 240° (WSW) 18:41:44 437.485
MOZHAYETS 4 01 Sep 18:36:07 18:39:54 26° 293° (WNW) 18:43:41
HO-68 01 Sep 18:38:58 18:42:04 13° 49° (NE) 18:45:09 435.675
LilacSat-2 01 Sep 18:47:16 18:50:55 45° 73° (ENE) 18:54:34 437.200
PCSat 01 Sep 18:48:01 18:50:05 12° 34° (NE) 18:52:09 145.827
Cosmos 2491 01 Sep 18:59:06 19:07:49 85° 97° (E) 19:16:38 435.465 / 435.565
NOAA 15 01 Sep 19:03:55 19:09:11 85° 256° (WSW) 19:14:31 137.62
BRITE-PL 01 Sep 19:07:49 19:12:41 50° 262° (W) 19:17:58 437.365/2234.400
NOAA 18 01 Sep 19:08:26 19:13:57 77° 73° (ENE) 19:19:29 137.9125
Cubesat XI-IV 01 Sep 19:11:05 19:16:26 87° 74° (ENE) 19:21:48 437.490
YUBILEINY 01 Sep 19:16:21 19:24:22 42° 273° (W) 19:32:20 435.215
CUTE-I 01 Sep 19:21:08 19:26:28 76° 257° (WSW) 19:31:49 437.470
KKS-1 01 Sep 19:28:17 19:29:39 11° 301° (WNW) 19:31:00 437.445
DOVE 4 01 Sep 19:30:48 19:35:59 64° 73° (ENE) 19:41:15 437.250
CINEMA 3 01 Sep 19:32:14 19:35:51 20° 65° (ENE) 19:39:24 145.822/145.860
SEEDS 01 Sep 19:46:13 19:47:48 12° 62° (ENE) 19:49:23 437.485
Cosmos 2504 01 Sep 19:47:50 19:54:54 63° 267° (W) 20:01:59 435.465 / 435.565
STARS 01 Sep 19:47:58 19:50:02 13° 299° (WNW) 19:52:07 437.465
AIST 2 01 Sep 19:48:59 19:52:22 23° 45° (NE) 19:55:45 435.215
GOMX 1 01 Sep 19:53:07 19:58:02 41° 264° (W) 20:03:11 467.674
AIST 1 01 Sep 19:53:46 19:57:01 20° 71° (ENE) 20:00:14
BEESAT 2 01 Sep 20:06:51 20:08:28 12° 251° (WSW) 20:10:04 435.950
CUBESAT XI-V 01 Sep 20:11:39 20:15:13 22° 295° (WNW) 20:18:47 437.345
COMPASS 1 01 Sep 20:13:33 20:16:08 16° 65° (ENE) 20:18:43 437.405
CANX-2 01 Sep 20:16:44 20:20:40 40° 72° (ENE) 20:24:37 2200.000
HO-68 01 Sep 20:21:19 20:28:23 63° 69° (ENE) 20:35:28 435.675
CUTE 1.7 + AOD 2 01 Sep 20:21:42 20:25:36 39° 71° (ENE) 20:29:32 437.475
LilacSat-2 01 Sep 20:23:38 20:25:27 13° 269° (W) 20:27:16 437.200
PCSat 01 Sep 20:29:25 20:34:46 54° 56° (NE) 20:40:03 145.827
STRAND 1 01 Sep 20:32:26 20:37:09 36° 97° (E) 20:41:50 437.568
UWE-3 01 Sep 20:35:02 20:37:44 16° 64° (ENE) 20:40:22 435.000/436.395/437.385
ZACube-1 01 Sep 20:38:34 20:39:27 11° 61° (ENE) 20:40:19 437.345
CUBEBUG 2 01 Sep 20:47:58 20:52:00 31° 70° (ENE) 20:55:58 437.445
NOAA 15 01 Sep 20:49:18 20:49:44 10° 273° (W) 20:50:09 137.62
NOAA 18 01 Sep 20:52:13 20:55:11 15° 270° (W) 20:58:10 137.9125
Cubesat XI-IV 01 Sep 20:55:19 20:57:10 12° 272° (W) 20:59:02 437.490
Cosmos 2491 01 Sep 20:59:28 21:05:49 22° 298° (WNW) 21:12:16 435.465 / 435.565
CINEMA 3 01 Sep 21:07:45 21:12:36 51° 261° (W) 21:17:24 145.822/145.860
DOVE 4 01 Sep 21:10:41 21:14:05 17° 271° (W) 21:17:31 437.250
SEEDS 01 Sep 21:18:49 21:22:57 66° 259° (W) 21:27:06 437.485
AIST 2 01 Sep 21:27:03 21:31:01 41° 243° (WSW) 21:34:57 435.215
AIST 1 01 Sep 21:30:42 21:34:45 36° 269° (W) 21:38:45
Oscar 11 01 Sep 21:31:02 21:34:57 36° 71° (ENE) 21:38:55 145.826/435.025
AAUSAT CUBESAT 2 01 Sep 21:33:15 21:37:22 84° 256° (WSW) 21:41:31 437.432
GONETS M04 01 Sep 21:37:24 21:41:58 15° 56° (NE) 21:46:30
FUNcube-1 01 Sep 21:46:06 21:50:19 50° 73° (ENE) 21:54:29 145.935
COMPASS 1 01 Sep 21:47:23 21:51:20 44° 261° (W) 21:55:19 437.405
CANX-2 01 Sep 21:53:53 21:56:41 17° 268° (W) 21:59:31 2200.000
CUTE 1.7 + AOD 2 01 Sep 21:58:46 22:01:36 18° 268° (W) 22:04:29 437.475
